KA9CBS Weather Reports


time (UTC)temp
F
wind
direction
speed
knots
gust
knots
rain 1hr
in
rain 24hr
in
rain mn
in
humidity
%
barometer
mb
20260906121815 72 112 1.7 2.6 0.00 0.00 0.00 98 1016.9
20260906121311 72 155 2.6 2.6 0.00 0.00 0.00 98 1016.9
20260906120807 72 126 0.9 1.7 0.00 0.00 0.00 98 1016.9
20260906120303 72 128 2.6 2.6 0.00 0.00 0.00 98 1016.8
20260906115759 72 119 0.9 1.7 0.00 0.00 0.00 98 1017.0
20260906115254 72 97 1.7 1.7 0.00 0.00 0.00 98 1016.7
20260906114753 72 108 0.0 0.9 0.00 0.00 0.00 98 1016.7
20260906114249 72 115 1.7 2.6 0.00 0.00 0.00 98 1016.7
20260906113744 72 118 1.7 1.7 0.00 0.00 0.00 98 1016.6
20260906113243 72 93 2.6 2.6 0.00 0.00 0.00 97 1016.6
20260906112743 72 129 0.0 0.9 0.00 0.00 0.00 97 1016.4
20260906112239 72 137 1.7 1.7 0.00 0.00 0.00 97 1016.4
20260906111739 73 126 2.6 2.6 0.00 0.00 0.00 97 1016.2
20260906111233 73 131 1.7 1.7 0.00 0.00 0.00 97 1016.1
20260906110728 73 137 1.7 1.7 0.00 0.00 0.00 96 1016.2
20260906110225 73 97 0.9 1.7 0.00 0.00 0.00 96 1016.1
20260906105723 73 118 2.6 2.6 0.00 0.00 0.00 96 1015.9
20260906105220 73 112 1.7 2.6 0.00 0.00 0.00 96 1016.1
20260906104719 73 100 1.7 2.6 0.00 0.00 0.00 96 1015.9
20260906104219 73 101 5.2 6.1 0.00 0.00 0.00 95 1015.9
20260906103716 73 117 4.3 6.1 0.00 0.00 0.00 95 1015.8
20260906103211 73 90 3.5 5.2 0.00 0.00 0.00 95 1015.9
20260906102706 74 123 2.6 2.6 0.00 0.00 0.00 95 1015.5
20260906102205 74 122 4.3 4.3 0.00 0.00 0.00 95 1015.7
20260906101700 74 86 2.6 2.6 0.00 0.00 0.00 95 1015.4
20260906101155 74 120 2.6 2.6 0.00 0.00 0.00 95 1015.6
20260906100650 74 94 3.5 4.3 0.00 0.00 0.00 94 1015.5
20260906100145 74 111 4.3 6.1 0.00 0.00 0.00 94 1015.5
20260906095640 74 89 3.5 4.3 0.00 0.00 0.00 94 1015.2
20260906095135 75 115 4.3 5.2 0.00 0.00 0.00 94 1015.3
20260906094634 75 92 1.7 2.6 0.00 0.00 0.00 94 1015.4
20260906094130 75 115 2.6 2.6 0.00 0.00 0.00 94 1015.1
20260906093626 75 90 1.7 4.3 0.00 0.00 0.00 93 1015.2
20260906093126 75 104 0.0 0.9 0.00 0.00 0.00 93 1015.1
20260906092621 75 95 3.5 5.2 0.00 0.00 0.00 93 1015.2
20260906092116 75 97 3.5 4.3 0.00 0.00 0.00 93 1014.8
20260906091612 75 127 4.3 5.2 0.00 0.00 0.00 93 1014.8
20260906091109 76 111 3.5 4.3 0.00 0.00 0.00 92 1015.2
20260906090609 76 75 0.9 2.6 0.00 0.00 0.00 92 1015.1
20260906090109 76 94 1.7 4.3 0.00 0.00 0.00 92 1014.7
20260906085607 76 93 4.3 6.1 0.00 0.00 0.00 92 1014.8
20260906085102 76 84 1.7 4.3 0.00 0.00 0.00 91 1014.9
20260906084557 77 97 4.3 5.2 0.00 0.00 0.00 91 1014.7
20260906084056 77 115 4.3 6.1 0.00 0.00 0.00 92 1014.8
20260906083552 77 95 2.6 5.2 0.00 0.00 0.00 92 1014.9
20260906083051 77 101 4.3 5.2 0.00 0.00 0.00 92 1014.8
20260906082547 77 103 2.6 4.3 0.00 0.00 0.00 92 1014.8
20260906082042 77 89 4.3 5.2 0.00 0.00 0.00 92 1014.8
20260906081538 78 99 2.6 2.6 0.00 0.00 0.00 91 1014.7
20260906081034 78 107 2.6 2.6 0.00 0.00 0.00 91 1014.6
20260906080530 78 124 1.7 1.7 0.00 0.00 0.00 90 1014.6
20260906080026 78 120 1.7 1.7 0.00 0.00 0.00 89 1014.4
20260906075526 78 115 1.7 1.7 0.00 0.00 0.00 89 1014.6
20260906075020 79 131 0.9 0.9 0.00 0.00 0.00 89 1014.5
20260906074515 79 141 0.0 0.0 0.00 0.00 0.00 88 1014.3
20260906074013 79 130 0.9 1.7 0.00 0.00 0.00 88 1014.8
20260906073508 79 125 0.9 1.7 0.00 0.00 0.00 88 1014.8
20260906073005 79 122 1.7 1.7 0.00 0.00 0.00 87 1014.8
20260906072459 80 126 1.7 1.7 0.00 0.00 0.00 87 1014.7
20260906071955 80 139 0.0 0.9 0.00 0.00 0.00 86 1014.9
20260906071451 80 138 0.9 0.9 0.00 0.00 0.00 86 1014.9
20260906070947 80 138 0.9 0.9 0.00 0.00 0.00 85 1015.1
20260906070443 80 150 0.9 0.9 0.00 0.00 0.00 85 1014.9
20260906065938 80 141 0.0 0.9 0.00 0.00 0.00 85 1014.7
20260906065438 80 134 0.9 0.9 0.00 0.00 0.00 85 1014.9
20260906064933 81 113 1.7 1.7 0.00 0.00 0.00 85 1015.2
20260906064429 81 145 1.7 2.6 0.00 0.00 0.00 85 1015.2
20260906063924 81 128 1.7 2.6 0.00 0.00 0.00 85 1015.2
20260906063419 81 128 1.7 1.7 0.00 0.00 0.00 85 1015.2
20260906062915 81 141 2.6 2.6 0.00 0.00 0.00 86 1015.5
20260906062415 81 131 2.6 2.6 0.00 0.00 0.00 86 1015.3
20260906061910 81 143 2.6 4.3 0.00 0.00 0.00 86 1015.4
20260906061406 81 130 5.2 6.1 0.00 0.00 0.00 86 1015.5
20260906060900 81 115 3.5 5.2 0.00 0.00 0.00 86 1015.4
20260906060358 82 121 2.6 2.6 0.00 0.00 0.00 86 1015.4
20260906055854 82 116 4.3 5.2 0.00 0.00 0.00 86 1015.6
20260906055349 82 125 1.7 1.7 0.00 0.00 0.00 86 1015.6
20260906054844 82 142 0.9 0.9 0.00 0.00 0.00 85 1015.3
20260906054339 82 130 4.3 5.2 0.00 0.00 0.00 85 1015.6
20260906053835 82 132 2.6 2.6 0.00 0.00 0.00 85 1015.4
20260906053331 82 144 0.9 1.7 0.00 0.00 0.00 84 1015.1
20260906052826 82 119 0.9 1.7 0.00 0.00 0.00 84 1015.4
20260906052323 82 122 2.6 4.3 0.00 0.00 0.00 83 1015.4
20260906051820 82 105 3.5 4.3 0.00 0.00 0.00 83 1015.3
20260906051318 82 134 2.6 2.6 0.00 0.00 0.00 82 1015.2
20260906050809 83 137 0.9 1.7 0.00 0.00 0.00 82 1014.8
20260906050303 83 141 2.6 2.6 0.00 0.00 0.00 81 1015.1
20260906045802 83 142 0.0 0.9 0.00 0.00 0.00 81 1015.1
20260906045257 83 139 0.0 0.9 0.00 0.00 0.00 80 1015.1
20260906044753 83 145 0.9 0.9 0.00 0.00 0.00 79 1014.7
20260906044248 83 118 1.7 1.7 0.00 0.00 0.00 79 1014.9
20260906043744 83 144 1.7 1.7 0.00 0.00 0.00 79 1015.1
20260906043240 83 147 0.9 0.9 0.00 0.00 0.00 79 1014.7
20260906042739 83 154 0.9 0.9 0.00 0.00 0.00 79 1014.9
20260906042238 83 151 0.0 0.0 0.00 0.00 0.00 79 1014.7
20260906041734 83 153 0.0 0.0 0.00 0.00 0.00 79 1014.7
20260906041229 82 140 0.0 0.0 0.00 0.00 0.00 80 1014.6
20260906040725 82 130 0.9 0.9 0.00 0.00 0.00 81 1014.5
20260906040220 81 137 0.9 0.9 0.00 0.00 0.00 82 1014.6
20260906035715 81 147 0.0 0.0 0.00 0.00 0.00 83 1014.5
20260906035211 80 150 0.0 0.0 0.00 0.00 0.00 84 1014.5
20260906034710 80 144 0.0 0.0 0.00 0.00 0.00 85 1014.4
20260906034205 80 150 0.0 0.0 0.00 0.00 0.00 85 1014.4
20260906033701 80 155 0.0 0.0 0.00 0.00 0.00 85 1014.6
20260906033200 80 155 0.0 0.0 0.00 0.00 0.00 85 1014.3
20260906032657 81 156 0.0 0.0 0.00 0.00 0.00 84 1014.2
20260906032152 81 159 0.0 0.0 0.00 0.00 0.00 83 1014.2
20260906031648 81 163 0.0 0.0 0.00 0.00 0.00 83 1014.5
20260906031143 81 159 0.0 0.0 0.00 0.00 0.00 82 1014.1
20260906030642 81 153 0.0 0.0 0.00 0.00 0.00 82 1014.3
20260906030138 81 150 0.0 0.0 0.00 0.00 0.00 82 1014.6
20260906025636 81 147 0.0 0.0 0.00 0.00 0.00 82 1014.1
20260906025136 81 153 0.0 0.0 0.00 0.00 0.00 83 1014.4
20260906024631 81 150 0.0 0.0 0.00 0.00 0.00 83 1014.3
20260906024125 81 150 0.0 0.0 0.00 0.00 0.00 83 1014.1
20260906023621 81 153 0.0 0.0 0.00 0.00 0.00 83 1014.0
20260906023121 82 153 0.0 0.0 0.00 0.00 0.00 81 1014.1
20260906022616 82 155 0.0 0.0 0.00 0.00 0.00 81 1014.0
20260906022112 82 155 0.0 0.0 0.00 0.00 0.00 80 1013.8
20260906021608 82 155 0.0 0.0 0.00 0.00 0.00 80 1013.8
20260906021106 82 164 0.0 0.0 0.00 0.00 0.00 79 1013.8
20260906020605 83 171 0.9 0.9 0.00 0.00 0.00 79 1013.7
20260906020100 83 160 0.0 0.0 0.00 0.00 0.00 77 1013.8
20260906015600 84 159 0.0 0.0 0.00 0.00 0.00 77 1013.6
20260906015100 84 158 0.0 0.0 0.00 0.00 0.00 76 1013.5
20260906014554 84 153 0.0 0.0 0.00 0.00 0.00 75 1013.5
20260906014050 85 153 0.0 0.0 0.00 0.00 0.00 73 1013.2
20260906013545 85 153 0.0 0.0 0.00 0.00 0.00 73 1013.5
20260906013041 85 153 0.0 0.0 0.00 0.00 0.00 72 1013.4
20260906012536 85 153 0.0 0.0 0.00 0.00 0.00 72 1013.2
20260906012035 85 153 0.0 0.0 0.00 0.00 0.00 72 1013.1
20260906011532 85 150 0.0 0.0 0.00 0.00 0.00 71 1013.4
20260906011031 86 150 0.0 0.0 0.00 0.00 0.00 71 1013.1
20260906010526 87 150 0.0 0.9 0.00 0.00 0.00 70 1013.0
20260906010023 88 155 0.0 0.0 0.00 0.00 0.00 65 1013.1
20260906005522 88 162 0.0 0.0 0.00 0.00 0.00 66 1013.0
20260906005021 88 153 0.0 0.0 0.00 0.00 0.00 65 1012.9
20260906004521 87 149 0.0 0.0 0.00 0.00 0.00 67 1012.8
20260906004016 88 158 0.0 0.0 0.00 0.00 0.00 65 1013.0
20260906003511 89 150 0.9 0.9 0.00 0.00 0.00 66 1012.9
20260906003007 90 154 0.0 0.0 0.00 0.00 0.00 62 1013.0
20260906002501 91 156 0.0 0.0 0.00 0.00 0.00 62 1012.7
20260906001956 91 150 0.0 0.0 0.00 0.00 0.00 60 1012.8
20260906001452 91 129 0.9 1.7 0.00 0.00 0.00 59 1012.9
20260906000946 92 142 0.9 0.9 0.00 0.00 0.00 60 1012.8
20260906000442 93 132 0.9 1.7 0.00 0.00 0.00 57 1013.1
20260905235942 93 141 0.9 1.7 0.00 0.00 0.00 57 1012.8
20260905235436 93 147 1.7 1.7 0.00 0.00 0.00 56 1013.3
20260905234931 94 115 2.6 2.6 0.00 0.00 0.00 54 1013.1
20260905234426 94 110 2.6 2.6 0.00 0.00 0.00 53 1013.0
20260905233921 94 124 1.7 1.7 0.00 0.00 0.00 53 1013.1
20260905233417 94 118 1.7 1.7 0.00 0.00 0.00 53 1012.9
20260905232915 94 75 3.5 4.3 0.00 0.00 0.00 53 1013.2
20260905232412 95 101 1.7 2.6 0.00 0.00 0.00 52 1013.0
20260905231906 95 78 3.5 4.3 0.00 0.00 0.00 50 1013.1
20260905231402 95 53 5.2 7.8 0.00 0.00 0.00 50 1012.8
20260905230859 95 62 5.2 6.1 0.00 0.00 0.00 50 1012.9
20260905230356 96 102 2.6 2.6 0.00 0.00 0.00 49 1012.9
20260905225850 96 61 2.6 5.2 0.00 0.00 0.00 49 1012.6
20260905225345 97 50 7.8 11.3 0.00 0.00 0.00 48 1013.0
20260905224840 98 82 1.7 2.6 0.00 0.00 0.00 45 1012.7
20260905224336 98 89 2.6 2.6 0.00 0.00 0.00 44 1012.8
20260905223836 98 148 0.0 0.9 0.00 0.00 0.00 45 1012.8
20260905223334 98 79 1.7 1.7 0.00 0.00 0.00 45 1012.8
20260905222828 98 103 1.7 1.7 0.00 0.00 0.00 45 1013.0
20260905222327 98 71 4.3 5.2 0.00 0.00 0.00 45 1012.6
20260905221823 99 105 1.7 1.7 0.00 0.00 0.00 45 1012.5
20260905221320 100 144 0.0 0.9 0.00 0.00 0.00 49 1012.5
20260905220816 98 95 1.7 1.7 0.00 0.00 0.00 46 1012.6
20260905220312 98 115 2.6 2.6 0.00 0.00 0.00 47 1012.6
20260905215811 98 109 1.7 2.6 0.00 0.00 0.00 48 1012.7
20260905215307 98 71 2.6 5.2 0.00 0.00 0.00 46 1012.7
20260905214802 99 56 3.5 7.8 0.00 0.00 0.00 46 1012.7
20260905214258 98 139 1.7 1.7 0.00 0.00 0.00 46 1012.5
20260905213753 97 82 3.5 4.3 0.00 0.00 0.00 47 1012.7
20260905213250 97 51 2.6 2.6 0.00 0.00 0.00 47 1012.6
20260905212744 97 62 4.3 5.2 0.00 0.00 0.00 46 1012.6
20260905212243 98 78 2.6 4.3 0.00 0.00 0.00 46 1012.7
20260905211743 99 134 0.9 0.9 0.00 0.00 0.00 46 1012.9
20260905211238 99 140 0.9 0.9 0.00 0.00 0.00 46 1012.8
20260905210735 99 107 1.7 1.7 0.00 0.00 0.00 42 1013.0
20260905210235 99 87 2.6 2.6 0.00 0.00 0.00 45 1012.8
20260905205733 100 56 6.1 7.8 0.00 0.00 0.00 41 1013.1
20260905205228 100 98 2.6 5.2 0.00 0.00 0.00 40 1012.8
20260905204723 99 71 4.3 5.2 0.00 0.00 0.00 42 1013.0
20260905204218 100 63 1.7 1.7 0.00 0.00 0.00 42 1012.9
20260905203718 100 132 0.9 0.9 0.00 0.00 0.00 42 1013.3
20260905203213 100 137 1.7 2.6 0.00 0.00 0.00 43 1013.0
20260905202708 100 70 4.3 5.2 0.00 0.00 0.00 42 1013.4
20260905202203 99 139 0.9 1.7 0.00 0.00 0.00 44 1013.4
20260905201659 99 55 4.3 7.8 0.00 0.00 0.00 44 1013.4
20260905201159 99 79 3.5 5.2 0.00 0.00 0.00 43 1013.2
20260905200654 99 113 2.6 4.3 0.00 0.00 0.00 42 1013.4
20260905200150 100 59 5.2 6.1 0.00 0.00 0.00 44 1013.4
20260905195648 100 66 7.8 9.6 0.00 0.00 0.00 43 1013.6
20260905195143 99 73 4.3 6.1 0.00 0.00 0.00 44 1013.3
20260905194638 99 88 2.6 4.3 0.00 0.00 0.00 44 1013.5
20260905194138 98 74 4.3 5.2 0.00 0.00 0.00 45 1013.8
20260905193632 98 75 2.6 6.1 0.00 0.00 0.00 46 1013.8
20260905193127 100 57 7.0 7.8 0.00 0.00 0.00 45 1013.9
20260905192623 99 158 0.0 0.0 0.00 0.00 0.00 46 1013.7
20260905192119 100 111 0.9 1.7 0.00 0.00 0.00 45 1014.1
20260905191618 99 85 2.6 2.6 0.00 0.00 0.00 47 1013.9
20260905191117 99 152 1.7 1.7 0.00 0.00 0.00 47 1014.0
20260905190615 99 86 1.7 1.7 0.00 0.00 0.00 47 1014.3
20260905190115 98 142 0.9 0.9 0.00 0.00 0.00 49 1014.2
20260905185613 98 62 3.5 4.3 0.00 0.00 0.00 49 1014.2
20260905185108 99 74 1.7 4.3 0.00 0.00 0.00 49 1014.3
20260905184603 100 132 0.9 1.7 0.00 0.00 0.00 48 1014.1
20260905184102 100 147 0.9 1.7 0.00 0.00 0.00 48 1014.2
20260905183601 99 135 0.0 0.9 0.00 0.00 0.00 48 1014.7
20260905183057 99 151 0.9 0.9 0.00 0.00 0.00 47 1014.4
20260905182551 98 130 0.9 1.7 0.00 0.00 0.00 49 1014.5
20260905182050 98 129 0.9 0.9 0.00 0.00 0.00 50 1014.6
20260905181545 98 149 0.9 0.9 0.00 0.00 0.00 49 1014.6
20260905181045 98 147 0.0 0.0 0.00 0.00 0.00 49 1014.6
20260905180545 98 146 0.0 0.9 0.00 0.00 0.00 49 1014.8
20260905180041 98 303 2.6 2.6 0.00 0.00 0.00 49 1014.9
20260905175539 98 153 0.0 0.9 0.00 0.00 0.00 49 1014.8
20260905175036 99 142 1.7 1.7 0.00 0.00 0.00 48 1014.8
20260905174531 98 139 0.9 0.9 0.00 0.00 0.00 50 1014.8
20260905174026 100 96 2.6 2.6 0.00 0.00 0.00 49 1014.9
20260905173523 100 161 0.0 0.0 0.00 0.00 0.00 47 1014.8
20260905173018 99 153 0.0 0.9 0.00 0.00 0.00 49 1014.9
20260905172516 99 163 0.0 0.0 0.00 0.00 0.00 49 1014.9
20260905172012 99 153 1.7 2.6 0.00 0.00 0.00 50 1015.3
20260905171508 98 155 2.6 2.6 0.00 0.00 0.00 50 1015.2
20260905171004 97 139 0.9 1.7 0.00 0.00 0.00 52 1015.2
20260905170500 96 142 0.9 0.9 0.00 0.00 0.00 52 1015.3
20260905165959 98 57 3.5 4.3 0.00 0.00 0.00 51 1015.3
20260905165455 97 86 1.7 1.7 0.00 0.00 0.00 51 1015.4
20260905164950 96 145 0.9 0.9 0.00 0.00 0.00 52 1015.2
20260905164444 97 84 0.9 0.9 0.00 0.00 0.00 53 1015.6
20260905163939 96 155 0.0 0.9 0.00 0.00 0.00 53 1015.7
20260905163436 96 151 2.6 2.6 0.00 0.00 0.00 54 1015.8
20260905162931 96 84 1.7 1.7 0.00 0.00 0.00 55 1015.8
20260905162426 96 128 1.7 2.6 0.00 0.00 0.00 55 1016.0
20260905161921 95 155 0.9 0.9 0.00 0.00 0.00 56 1016.0
20260905161420 96 96 1.7 1.7 0.00 0.00 0.00 57 1016.1
20260905160918 96 162 0.9 0.9 0.00 0.00 0.00 57 1016.1
20260905160412 95 144 0.9 0.9 0.00 0.00 0.00 57 1015.9
20260905155906 94 154 0.0 0.9 0.00 0.00 0.00 59 1015.9
20260905155401 93 63 2.6 5.2 0.00 0.00 0.00 57 1016.0
20260905154900 94 114 1.7 2.6 0.00 0.00 0.00 56 1015.9
20260905154355 94 127 1.7 1.7 0.00 0.00 0.00 58 1016.1
20260905153851 94 125 1.7 1.7 0.00 0.00 0.00 58 1016.0
20260905153347 94 148 1.7 1.7 0.00 0.00 0.00 59 1016.2
20260905152847 94 150 1.7 1.7 0.00 0.00 0.00 59 1016.2
20260905152345 93 127 1.7 1.7 0.00 0.00 0.00 61 1015.9
20260905151841 93 154 0.9 1.7 0.00 0.00 0.00 61 1016.1
20260905151337 92 135 1.7 1.7 0.00 0.00 0.00 62 1016.0
20260905150837 92 158 0.9 1.7 0.00 0.00 0.00 62 1016.1
20260905150332 91 126 0.9 1.7 0.00 0.00 0.00 63 1016.1
20260905145829 91 134 0.9 1.7 0.00 0.00 0.00 66 1016.1
20260905145328 91 152 0.9 1.7 0.00 0.00 0.00 63 1016.1
20260905144827 91 357 4.3 4.3 0.00 0.00 0.00 64 1016.2
20260905144323 89 237 1.7 2.6 0.00 0.00 0.00 67 1016.0
20260905143821 88 182 0.9 0.9 0.00 0.00 0.00 71 1016.1
20260905143316 88 280 4.3 4.3 0.00 0.00 0.00 71 1016.1
20260905142815 89 272 4.3 6.1 0.00 0.00 0.00 70 1015.9
20260905142309 88 173 1.7 2.6 0.00 0.00 0.00 70 1016.4
20260905141806 88 170 0.9 0.9 0.00 0.00 0.00 71 1015.9
20260905141301 87 161 0.9 0.9 0.00 0.00 0.00 72 1016.0
20260905140757 86 173 0.9 0.9 0.00 0.00 0.00 73 1016.0
20260905140256 86 166 0.0 0.9 0.00 0.00 0.00 75 1015.9
20260905135755 85 290 3.5 4.3 0.00 0.00 0.00 77 1016.1
20260905135252 84 213 1.7 1.7 0.00 0.00 0.00 79 1016.2
20260905134752 84 265 2.6 4.3 0.00 0.00 0.00 79 1016.2
20260905134251 83 276 2.6 2.6 0.00 0.00 0.00 80 1016.4
20260905133745 83 260 2.6 2.6 0.00 0.00 0.00 81 1016.4
20260905133241 83 226 2.6 2.6 0.00 0.00 0.00 81 1016.4
20260905132739 82 177 0.9 0.9 0.00 0.00 0.00 82 1016.1
20260905132236 82 196 1.7 1.7 0.00 0.00 0.00 82 1016.4
20260905131730 82 232 2.6 2.6 0.00 0.00 0.00 83 1016.3
20260905131226 81 270 4.3 4.3 0.00 0.00 0.00 83 1016.1
20260905130726 81 230 2.6 2.6 0.00 0.00 0.00 83 1016.4
20260905130225 81 175 0.0 0.9 0.00 0.00 0.00 85 1016.1
20260905125720 80 176 0.0 0.0 0.00 0.00 0.00 87 1016.2
20260905125216 80 192 2.6 2.6 0.00 0.00 0.00 88 1016.1
20260905124712 80 168 0.0 0.9 0.00 0.00 0.00 87 1016.1
20260905124208 79 168 0.0 0.0 0.00 0.00 0.00 89 1016.2
20260905123702 78 168 0.0 0.0 0.00 0.00 0.00 91 1016.1
20260905123200 78 169 0.0 0.0 0.00 0.00 0.00 91 1016.0
20260905122659 77 171 0.0 0.0 0.00 0.00 0.00 91 1016.1